This is the latest recevied weather packets stored in our database for station/object W2MMD-13. If no packets are shown the sender has not sent any weather packets the latest 10 day(s).
| Time | Temp. | Humidity | Pressure | Rain* | Wind** | Luminosity | Snow |
|---|---|---|---|---|---|---|---|
| 1777750732 | 16.67° C | 39% | - | 0 mm | - | - | - |
| 1777750720 | 16.67° C | 39% | - | 0 mm | - | - | - |
| 1777750120 | 17.78° C | 39% | - | 0 mm | - | - | - |
| 1777749531 | 16.67° C | 40% | - | 0 mm | - | - | - |
| 1777749520 | 16.67° C | 40% | - | 0 mm | - | - | - |
| 1777748930 | 17.22° C | 41% | - | 0 mm | - | - | - |
| 1777748920 | 17.22° C | 43% | - | 0 mm | - | - | - |
| 1777748320 | 16.11° C | 39% | - | 0 mm | - | - | - |
| 1777747731 | 17.78° C | 42% | - | 0 mm | - | - | - |
| 1777747720 | 17.78° C | 42% | - | 0 mm | - | - | - |
| 1777747120 | 17.22° C | 43% | - | 0 mm | - | - | - |
| 1777746531 | 16.67° C | 45% | - | 0 mm | - | - | - |
| 1777746519 | 16.67° C | 45% | - | 0 mm | - | - | - |
| 1777746114 | 16.67° C | 46% | - | 0 mm | - | - | - |
| 1777745920 | 16.67° C | 46% | - | 0 mm | - | - | - |
| 1777745330 | 16.11° C | 42% | - | 0 mm | - | - | - |
| 1777745319 | 15.56° C | 43% | - | 0 mm | - | - | - |
| 1777744731 | 15° C | 48% | - | 0 mm | - | - | - |
| 1777744719 | 15° C | 47% | - | 0 mm | - | - | - |
| 1777744119 | 15° C | 47% | - | 0 mm | - | - | - |
| 1777743531 | 15° C | 50% | - | 0 mm | - | - | - |
| 1777743519 | 15° C | 47% | - | 0 mm | - | - | - |
| 1777742919 | 16.11° C | 48% | - | 0 mm | - | - | - |
| 1777742331 | 15° C | 49% | - | 0 mm | - | - | - |
| 1777742319 | 15° C | 50% | - | 0 mm | - | - | - |
* Rain latest hour (hover to see other rain measurements)
** Current wind speed in m/s (hover to see current wind gust speed)